QPF
0.00 0.00 0.01 0.01 0.01 0.02 0.03 0.02 0.02 0.04 0.06 0.10 0.11 0.11 0.14 0.16 0.12 0.08 0.04 0.01 0.00 0.01 0.01 0.01 0.02 0.01 0.01 0.01 0.01 0.00 0.01 0.01 0.00 0.00 0.00 0.00 0.00 0.01 0.01 0.01 0.01 0.01 0.01 0.01 0.00 0.00 0.00 0.01 0.00
0.00 0.00 0.00 0.01 0.01 0.01 0.02 0.01 0.01 0.03 0.05 0.09 0.11 0.15 0.19 0.19 0.18 0.15 0.05 0.00 0.00 0.00 0.00 0.01 0.01 0.01 0.01 0.01 0.01 0.01 0.01 0.01 0.01 0.01 0.01 0.01 0.01 0.01 0.01 0.01 0.01 0.01 0.01 0.01 0.00 0.00 0.00 0.00 0.00
0.00 0.00 0.00 0.02 0.02 0.02 0.01 0.01 0.01 0.02 0.05 0.16 0.22 0.18 0.23 0.23 0.21 0.14 0.04 0.00 0.00 0.00 0.00 0.01 0.01 0.01 0.01 0.01 0.01 0.01 0.01 0.01 0.01 0.01 0.01 0.01 0.01 0.01 0.01 0.01 0.01 0.01 0.01 0.01 0.01 0.00 0.00 0.00 0.00
0.00 0.00 0.01 0.01 0.01 0.01 0.01 0.01 0.01 0.02 0.04 0.15 0.25 0.17 0.18 0.16 0.10 0.05 0.01 0.00 0.00 0.01 0.01 0.01 0.01 0.01 0.01 0.01 0.01 0.01 0.01 0.01 0.01 0.01 0.01 0.01 0.01 0.01 0.01 0.01 0.01 0.01 0.01 0.01 0.01 0.00 0.00 0.00 0.00
0.00 0.00 0.01 0.01 0.01 0.01 0.01 0.00 0.01 0.02 0.04 0.11 0.13 0.11 0.16 0.13 0.08 0.05 0.02 0.01 0.00 0.01 0.01 0.01 0.01 0.01 0.02 0.01 0.01 0.01 0.01 0.01 0.01 0.01 0.01 0.01 0.01 0.01 0.02 0.01 0.01 0.01 0.01 0.01 0.01 0.01 0.01 0.00 0.00
0.00 0.00 0.00 0.00 0.00 0.00 0.00 0.01 0.01 0.02 0.03 0.05 0.07 0.10 0.13 0.10 0.07 0.04 0.02 0.01 0.01 0.01 0.01 0.02 0.02 0.02 0.02 0.01 0.01 0.01 0.01 0.01 0.01 0.01 0.01 0.01 0.01 0.02 0.02 0.01 0.01 0.01 0.01 0.01 0.01 0.01 0.01 0.00 0.01
0.00 0.00 0.00 0.00 0.00 0.00 0.00 0.01 0.02 0.03 0.05 0.04 0.06 0.14 0.13 0.14 0.11 0.05 0.03 0.04 0.02 0.03 0.03 0.03 0.02 0.02 0.02 0.01 0.01 0.01 0.01 0.02 0.02 0.02 0.02 0.02 0.02 0.03 0.03 0.02 0.02 0.02 0.02 0.02 0.02 0.01 0.01 0.01 0.01
0.00 0.00 0.00 0.00 0.00 0.00 0.01 0.01 0.01 0.02 0.02 0.02 0.03 0.07 0.08 0.11 0.12 0.09 0.08 0.09 0.05 0.05 0.05 0.05 0.04 0.03 0.03 0.03 0.03 0.02 0.02 0.02 0.03 0.04 0.04 0.04 0.04 0.04 0.04 0.04 0.03 0.03 0.04 0.04 0.03 0.02 0.01 0.02 0.02
0.00 0.00 0.00 0.00 0.00 0.00 0.01 0.01 0.01 0.01 0.01 0.02 0.02 0.03 0.05 0.09 0.13 0.13 0.09 0.07 0.06 0.06 0.05 0.04 0.04 0.03 0.03 0.03 0.03 0.03 0.03 0.04 0.05 0.05 0.05 0.06 0.05 0.04 0.05 0.06 0.08 0.08 0.08 0.06 0.05 0.05 0.04 0.03 0.02
0.00 0.00 0.00 0.00 0.00 0.00 0.01 0.01 0.01 0.01 0.01 0.02 0.02 0.03 0.06 0.11 0.18 0.20 0.14 0.09 0.06 0.05 0.06 0.05 0.04 0.05 0.05 0.04 0.05 0.04 0.05 0.05 0.04 0.04 0.06 0.07 0.05 0.05 0.06 0.08 0.12 0.15 0.14 0.12 0.09 0.08 0.06 0.04 0.03
0.00 0.00 0.00 0.00 0.00 0.00 0.00 0.00 0.01 0.01 0.02 0.03 0.03 0.04 0.09 0.19 0.32 0.34 0.27 0.28 0.19 0.17 0.15 0.09 0.09 0.09 0.09 0.08 0.06 0.06 0.05 0.05 0.05 0.05 0.06 0.06 0.06 0.06 0.08 0.09 0.12 0.13 0.14 0.12 0.11 0.10 0.07 0.05 0.03
0.00 0.00 0.00 0.00 0.00 0.00 0.00 0.00 0.01 0.02 0.03 0.04 0.05 0.06 0.11 0.20 0.30 0.31 0.41 0.45 0.32 0.22 0.20 0.18 0.16 0.16 0.15 0.13 0.10 0.07 0.06 0.05 0.05 0.05 0.05 0.06 0.06 0.06 0.08 0.10 0.12 0.12 0.14 0.13 0.11 0.10 0.10 0.09 0.07
0.00 0.00 0.00 0.00 0.00 0.00 0.00 0.01 0.01 0.03 0.04 0.05 0.11 0.14 0.15 0.18 0.24 0.28 0.35 0.38 0.28 0.21 0.17 0.16 0.17 0.17 0.16 0.15 0.12 0.09 0.08 0.07 0.06 0.07 0.07 0.09 0.08 0.07 0.07 0.08 0.10 0.11 0.12 0.12 0.12 0.11 0.09 0.09 0.09
0.00 0.00 0.00 0.00 0.00 0.00 0.00 0.01 0.02 0.04 0.05 0.09 0.15 0.24 0.28 0.28 0.29 0.33 0.33 0.36 0.35 0.31 0.23 0.21 0.17 0.16 0.16 0.15 0.14 0.11 0.08 0.08 0.08 0.08 0.09 0.08 0.07 0.07 0.09 0.09 0.07 0.08 0.10 0.12 0.13 0.12 0.11 0.09 0.08
0.00 0.00 0.00 0.00 0.00 0.01 0.01 0.02 0.02 0.03 0.06 0.10 0.14 0.21 0.31 0.33 0.37 0.40 0.39 0.40 0.48 0.42 0.33 0.28 0.22 0.19 0.18 0.16 0.14 0.11 0.08 0.07 0.07 0.06 0.06 0.05 0.06 0.06 0.07 0.06 0.06 0.06 0.07 0.07 0.09 0.10 0.10 0.10 0.08
0.00 0.00 0.00 0.00 0.00 0.01 0.01 0.01 0.02 0.02 0.04 0.08 0.13 0.19 0.29 0.34 0.36 0.39 0.33 0.27 0.28 0.33 0.33 0.24 0.20 0.19 0.16 0.13 0.11 0.08 0.08 0.07 0.06 0.05 0.04 0.04 0.04 0.04 0.03 0.04 0.04 0.04 0.03 0.03 0.05 0.07 0.07 0.07 0.09
0.00 0.00 0.00 0.00 0.00 0.00 0.01 0.01 0.02 0.03 0.03 0.05 0.11 0.21 0.31 0.28 0.28 0.27 0.24 0.22 0.21 0.22 0.26 0.20 0.18 0.16 0.12 0.10 0.08 0.06 0.06 0.05 0.04 0.03 0.03 0.04 0.04 0.03 0.03 0.03 0.02 0.01 0.01 0.02 0.03 0.04 0.05 0.05 0.06
0.00 0.00 0.00 0.00 0.00 0.00 0.00 0.00 0.02 0.03 0.04 0.04 0.08 0.14 0.23 0.24 0.25 0.21 0.20 0.20 0.20 0.18 0.18 0.15 0.13 0.14 0.10 0.07 0.06 0.05 0.04 0.04 0.04 0.03 0.03 0.02 0.01 0.01 0.01 0.01 0.01 0.01 0.01 0.01 0.01 0.01 0.02 0.02 0.04
0.00 0.00 0.00 0.00 0.00 0.00 0.01 0.01 0.02 0.02 0.03 0.05 0.07 0.11 0.12 0.14 0.18 0.20 0.22 0.26 0.24 0.20 0.16 0.12 0.10 0.10 0.06 0.04 0.03 0.02 0.02 0.02 0.02 0.03 0.03 0.03 0.02 0.01 0.01 0.01 0.01 0.00 0.00 0.00 0.00 0.01 0.01 0.01 0.02
0.00 0.00 0.00 0.00 0.00 0.00 0.01 0.01 0.02 0.02 0.04 0.04 0.05 0.07 0.09 0.11 0.14 0.17 0.20 0.20 0.23 0.17 0.14 0.11 0.08 0.06 0.03 0.02 0.01 0.00 0.00 0.01 0.01 0.06 0.06 0.04 0.02 0.01 0.00 0.00 0.00 0.00 0.00 0.00 0.00 0.00 0.00 0.00 0.00
0.00 0.00 0.00 0.00 0.01 0.01 0.00 0.01 0.01 0.02 0.03 0.04 0.04 0.06 0.06 0.07 0.08 0.10 0.13 0.14 0.12 0.09 0.07 0.06 0.04 0.02 0.01 0.01 0.01 0.00 0.00 0.00 0.01 0.02 0.02 0.01 0.01 0.00 0.00 0.00 0.00 0.00 0.00 0.00 0.00 0.00 0.00 0.00 0.00
0.00 0.00 0.00 0.00 0.00 0.01 0.00 0.00 0.01 0.02 0.02 0.03 0.04 0.04 0.03 0.04 0.06 0.09 0.08 0.09 0.08 0.06 0.04 0.03 0.02 0.01 0.01 0.00 0.01 0.00 0.00 0.00 0.00 0.00 0.00 0.00 0.00 0.00 0.00 0.00 0.00 0.00 0.00 0.00 0.00 0.00 0.00 0.00 0.00
0.00 0.00 0.00 0.00 0.01 0.00 0.00 0.00 0.00 0.01 0.01 0.02 0.03 0.04 0.03 0.03 0.05 0.06 0.07 0.07 0.08 0.08 0.07 0.04 0.02 0.01 0.01 0.01 0.01 0.00 0.00 0.00 0.00 0.00 0.00 0.00 0.00 0.00 0.00 0.00 0.00 0.00 0.00 0.00 0.00 0.00 0.00 0.00 0.00
0.00 0.00 0.00 0.00 0.00 0.00 0.00 0.00 0.00 0.01 0.01 0.01 0.02 0.02 0.02 0.03 0.05 0.05 0.05 0.04 0.06 0.09 0.11 0.08 0.04 0.01 0.01 0.01 0.01 0.00 0.00 0.00 0.00 0.00 0.00 0.00 0.00 0.00 0.00 0.00 0.00 0.00 0.00 0.00 0.00 0.00 0.00 0.00 0.00
0.01 0.01 0.00 0.00 0.00 0.00 0.00 0.00 0.00 0.00 0.00 0.00 0.01 0.01 0.01 0.02 0.04 0.03 0.03 0.03 0.06 0.10 0.09 0.10 0.06 0.01 0.00 0.00 0.00 0.00 0.00 0.00 0.00 0.00 0.00 0.00 0.00 0.00 0.00 0.00 0.00 0.00 0.00 0.00 0.00 0.00 0.00 0.00 0.00
0.01 0.01 0.00 0.00 0.00 0.00 0.00 0.00 0.00 0.00 0.00 0.00 0.00 0.00 0.01 0.02 0.01 0.01 0.02 0.04 0.11 0.11 0.08 0.06 0.04 0.01 0.01 0.00 0.00 0.00 0.00 0.00 0.00 0.00 0.00 0.00 0.00 0.00 0.00 0.00 0.00 0.00 0.00 0.00 0.00 0.00 0.00 0.00 0.00
0.01 0.01 0.00 0.00 0.00 0.00 0.00 0.00 0.00 0.00 0.00 0.00 0.00 0.00 0.00 0.01 0.01 0.01 0.03 0.04 0.05 0.04 0.04 0.03 0.02 0.01 0.01 0.00 0.00 0.00 0.00 0.00 0.00 0.00 0.00 0.00 0.00 0.00 0.00 0.00 0.00 0.00 0.00 0.00 0.00 0.00 0.00 0.00 0.00
0.01 0.01 0.01 0.00 0.00 0.00 0.00 0.00 0.00 0.00 0.00 0.00 0.00 0.00 0.00 0.00 0.00 0.00 0.01 0.01 0.01 0.01 0.02 0.01 0.01 0.00 0.00 0.00 0.00 0.00 0.00 0.00 0.00 0.00 0.00 0.00 0.00 0.00 0.00 0.00 0.00 0.00 0.00 0.00 0.00 0.00 0.00 0.00 0.00
0.01 0.01 0.01 0.00 0.00 0.00 0.00 0.00 0.00 0.00 0.00 0.00 0.00 0.00 0.00 0.00 0.00 0.00 0.00 0.00 0.00 0.00 0.00 0.00 0.00 0.00 0.00 0.00 0.00 0.00 0.00 0.00 0.00 0.00 0.00 0.00 0.00 0.00 0.00 0.00 0.00 0.00 0.00 0.00 0.00 0.00 0.00 0.00 0.00
0.01 0.01 0.01 0.00 0.00 0.00 0.00 0.00 0.00 0.00 0.00 0.00 0.00 0.00 0.00 0.00 0.00 0.00 0.00 0.00 0.00 0.00 0.00 0.00 0.00 0.00 0.00 0.00 0.00 0.00 0.00 0.00 0.00 0.00 0.00 0.00 0.00 0.00 0.00 0.00 0.00 0.00 0.00 0.00 0.00 0.00 0.00 0.00 0.00
MSLP
1010.94 1011.82 1012.81 1013.76 1014.52 1015.00 1015.14 1014.97 1014.57 1014.07 1013.60 1013.26 1013.09 1013.11 1013.26 1013.45 1013.60 1013.64 1013.54 1013.32 1013.03 1012.74 1012.53 1012.45 1012.53 1012.74 1013.04 1013.37 1013.70 1013.98 1014.19 1014.36 1014.50 1014.65 1014.84 1015.06 1015.32 1015.59 1015.85 1016.08 1016.25 1016.36 1016.43 1016.46 1016.48 1016.49 1016.49 1016.50 1016.52
1011.42 1012.43 1013.47 1014.38 1015.02 1015.30 1015.22 1014.82 1014.22 1013.57 1012.99 1012.59 1012.42 1012.46 1012.65 1012.90 1013.12 1013.23 1013.21 1013.07 1012.87 1012.67 1012.54 1012.52 1012.64 1012.88 1013.19 1013.53 1013.86 1014.14 1014.38 1014.57 1014.75 1014.94 1015.14 1015.36 1015.60 1015.83 1016.03 1016.20 1016.33 1016.42 1016.49 1016.54 1016.59 1016.64 1016.68 1016.72 1016.74
1012.02 1013.11 1014.13 1014.94 1015.40 1015.46 1015.14 1014.53 1013.76 1012.98 1012.34 1011.93 1011.78 1011.87 1012.11 1012.41 1012.68 1012.86 1012.91 1012.86 1012.74 1012.64 1012.59 1012.65 1012.82 1013.08 1013.40 1013.74 1014.06 1014.34 1014.57 1014.78 1014.98 1015.17 1015.38 1015.59 1015.79 1015.98 1016.13 1016.26 1016.35 1016.43 1016.51 1016.59 1016.68 1016.78 1016.86 1016.92 1016.96
1012.69 1013.79 1014.73 1015.37 1015.61 1015.44 1014.91 1014.12 1013.22 1012.39 1011.75 1011.37 1011.28 1011.41 1011.71 1012.05 1012.37 1012.59 1012.70 1012.71 1012.69 1012.67 1012.72 1012.85 1013.07 1013.35 1013.67 1013.99 1014.28 1014.54 1014.76 1014.95 1015.14 1015.34 1015.54 1015.73 1015.91 1016.06 1016.18 1016.28 1016.36 1016.44 1016.54 1016.66 1016.80 1016.94 1017.05 1017.14 1017.19
1013.37 1014.40 1015.19 1015.62 1015.64 1015.25 1014.53 1013.62 1012.68 1011.86 1011.28 1010.98 1010.97 1011.17 1011.51 1011.89 1012.22 1012.46 1012.60 1012.67 1012.71 1012.78 1012.91 1013.11 1013.38 1013.68 1013.99 1014.27 1014.52 1014.73 1014.91 1015.07 1015.25 1015.44 1015.63 1015.82 1015.98 1016.12 1016.23 1016.31 1016.40 1016.49 1016.62 1016.78 1016.96 1017.14 1017.29 1017.39 1017.44
1013.97 1014.86 1015.46 1015.66 1015.45 1014.88 1014.05 1013.09 1012.18 1011.45 1010.98 1010.81 1010.89 1011.17 1011.55 1011.93 1012.25 1012.48 1012.63 1012.74 1012.83 1012.97 1013.16 1013.42 1013.72 1014.03 1014.31 1014.55 1014.74 1014.89 1015.02 1015.15 1015.30 1015.48 1015.68 1015.87 1016.04 1016.19 1016.30 1016.39 1016.49 1016.61 1016.77 1016.96 1017.18 1017.39 1017.56 1017.67 1017.71
1014.41 1015.12 1015.49 1015.47 1015.07 1014.37 1013.49 1012.58 1011.77 1011.19 1010.89 1010.86 1011.06 1011.40 1011.79 1012.16 1012.45 1012.65 1012.79 1012.90 1013.04 1013.22 1013.47 1013.76 1014.08 1014.38 1014.63 1014.82 1014.94 1015.03 1015.10 1015.20 1015.34 1015.51 1015.72 1015.93 1016.12 1016.28 1016.41 1016.52 1016.64 1016.78 1016.96 1017.18 1017.42 1017.65 1017.83 1017.94 1017.98
1014.64 1015.14 1015.29 1015.08 1014.54 1013.78 1012.93 1012.12 1011.48 1011.08 1010.96 1011.09 1011.39 1011.79 1012.18 1012.52 1012.77 1012.93 1013.04 1013.15 1013.30 1013.51 1013.80 1014.12 1014.44 1014.72 1014.93 1015.06 1015.13 1015.15 1015.18 1015.25 1015.38 1015.57 1015.79 1016.02 1016.24 1016.43 1016.57 1016.70 1016.82 1016.97 1017.16 1017.39 1017.65 1017.88 1018.08 1018.19 1018.22
1014.64 1014.94 1014.90 1014.54 1013.93 1013.18 1012.42 1011.76 1011.31 1011.12 1011.18 1011.44 1011.83 1012.26 1012.64 1012.94 1013.13 1013.25 1013.33 1013.44 1013.60 1013.84 1014.14 1014.47 1014.79 1015.04 1015.21 1015.29 1015.31 1015.29 1015.29 1015.34 1015.47 1015.66 1015.90 1016.16 1016.40 1016.60 1016.75 1016.88 1017.00 1017.14 1017.33 1017.55 1017.81 1018.05 1018.25 1018.37 1018.41
1014.42 1014.55 1014.38 1013.94 1013.32 1012.64 1012.01 1011.53 1011.28 1011.27 1011.48 1011.85 1012.29 1012.72 1013.08 1013.33 1013.48 1013.56 1013.63 1013.73 1013.91 1014.16 1014.47 1014.81 1015.11 1015.34 1015.47 1015.51 1015.49 1015.45 1015.43 1015.47 1015.60 1015.81 1016.06 1016.33 1016.58 1016.78 1016.92 1017.03 1017.13 1017.25 1017.42 1017.63 1017.87 1018.12 1018.33 1018.47 1018.53
1014.04 1014.06 1013.82 1013.37 1012.81 1012.24 1011.77 1011.47 1011.38 1011.52 1011.83 1012.25 1012.70 1013.11 1013.43 1013.64 1013.76 1013.83 1013.90 1014.01 1014.20 1014.47 1014.79 1015.11 1015.40 1015.60 1015.71 1015.72 1015.68 1015.62 1015.60 1015.65 1015.78 1015.99 1016.25 1016.51 1016.75 1016.93 1017.06 1017.14 1017.21 1017.29 1017.43 1017.61 1017.84 1018.09 1018.31 1018.48 1018.57
1013.60 1013.57 1013.32 1012.92 1012.47 1012.05 1011.74 1011.59 1011.63 1011.85 1012.20 1012.62 1013.03 1013.40 1013.67 1013.85 1013.96 1014.03 1014.12 1014.26 1014.47 1014.75 1015.07 1015.38 1015.64 1015.82 1015.91 1015.91 1015.86 1015.81 1015.79 1015.85 1015.99 1016.19 1016.44 1016.69 1016.90 1017.06 1017.15 1017.19 1017.22 1017.27 1017.36 1017.52 1017.74 1017.98 1018.22 1018.42 1018.54
1013.19 1013.17 1012.98 1012.69 1012.37 1012.11 1011.94 1011.90 1012.01 1012.25 1012.58 1012.94 1013.28 1013.58 1013.81 1013.96 1014.08 1014.18 1014.31 1014.49 1014.72 1015.01 1015.31 1015.61 1015.84 1016.00 1016.07 1016.07 1016.03 1016.00 1016.00 1016.06 1016.20 1016.40 1016.63 1016.84 1017.02 1017.14 1017.19 1017.20 1017.20 1017.21 1017.28 1017.41 1017.61 1017.84 1018.09 1018.30 1018.47
1012.92 1012.95 1012.86 1012.71 1012.55 1012.43 1012.38 1012.41 1012.53 1012.73 1012.97 1013.23 1013.48 1013.69 1013.88 1014.03 1014.17 1014.31 1014.49 1014.70 1014.96 1015.24 1015.53 1015.79 1015.99 1016.13 1016.19 1016.21 1016.19 1016.18 1016.20 1016.28 1016.42 1016.60 1016.79 1016.98 1017.12 1017.20 1017.23 1017.21 1017.19 1017.18 1017.23 1017.33 1017.51 1017.73 1017.97 1018.19 1018.37
1012.84 1012.95 1012.99 1012.99 1012.98 1012.98 1013.01 1013.07 1013.16 1013.27 1013.39 1013.52 1013.66 1013.80 1013.95 1014.11 1014.28 1014.48 1014.70 1014.95 1015.21 1015.48 1015.72 1015.94 1016.11 1016.22 1016.29 1016.32 1016.34 1016.37 1016.42 1016.51 1016.64 1016.80 1016.96 1017.10 1017.21 1017.27 1017.28 1017.25 1017.23 1017.22 1017.25 1017.34 1017.49 1017.69 1017.91 1018.12 1018.29
1012.96 1013.16 1013.32 1013.47 1013.60 1013.70 1013.79 1013.84 1013.86 1013.86 1013.85 1013.85 1013.88 1013.95 1014.08 1014.26 1014.47 1014.72 1014.99 1015.25 1015.50 1015.73 1015.92 1016.09 1016.21 1016.31 1016.39 1016.45 1016.51 1016.58 1016.67 1016.77 1016.89 1017.02 1017.14 1017.25 1017.32 1017.36 1017.37 1017.36 1017.35 1017.35 1017.39 1017.47 1017.59 1017.75 1017.93 1018.11 1018.26
1013.23 1013.52 1013.81 1014.08 1014.33 1014.52 1014.63 1014.65 1014.59 1014.46 1014.32 1014.20 1014.15 1014.17 1014.29 1014.50 1014.76 1015.06 1015.35 1015.62 1015.84 1016.01 1016.14 1016.25 1016.33 1016.42 1016.51 1016.61 1016.72 1016.84 1016.96 1017.08 1017.20 1017.30 1017.38 1017.44 1017.49 1017.52 1017.54 1017.55 1017.56 1017.59 1017.63 1017.71 1017.80 1017.92 1018.06 1018.19 1018.30
1013.59 1013.96 1014.36 1014.75 1015.09 1015.34 1015.47 1015.44 1015.30 1015.06 1014.80 1014.58 1014.45 1014.45 1014.58 1014.82 1015.13 1015.47 1015.78 1016.03 1016.21 1016.33 1016.39 1016.44 1016.49 1016.57 1016.68 1016.83 1017.00 1017.18 1017.34 1017.47 1017.57 1017.64 1017.68 1017.70 1017.72 1017.74 1017.76 1017.80 1017.85 1017.91 1017.97 1018.04 1018.11 1018.19 1018.27 1018.35 1018.41
1013.93 1014.39 1014.90 1015.39 1015.82 1016.12 1016.24 1016.17 1015.94 1015.60 1015.24 1014.94 1014.76 1014.74 1014.89 1015.17 1015.53 1015.90 1016.22 1016.46 1016.60 1016.65 1016.66 1016.65 1016.68 1016.76 1016.91 1017.12 1017.35 1017.59 1017.79 1017.93 1018.01 1018.04 1018.04 1018.01 1018.00 1018.01 1018.04 1018.11 1018.19 1018.27 1018.35 1018.42 1018.48 1018.52 1018.55 1018.58 1018.60
1014.21 1014.76 1015.37 1015.97 1016.48 1016.81 1016.92 1016.80 1016.49 1016.06 1015.61 1015.23 1015.01 1014.99 1015.16 1015.48 1015.88 1016.28 1016.61 1016.84 1016.94 1016.95 1016.90 1016.87 1016.89 1016.99 1017.19 1017.45 1017.75 1018.04 1018.28 1018.43 1018.50 1018.49 1018.43 1018.37 1018.32 1018.30 1018.34 1018.42 1018.53 1018.64 1018.74 1018.81 1018.86 1018.87 1018.87 1018.86 1018.86
1014.38 1015.04 1015.76 1016.46 1017.04 1017.40 1017.50 1017.32 1016.93 1016.40 1015.86 1015.42 1015.17 1015.13 1015.32 1015.67 1016.10 1016.53 1016.87 1017.09 1017.18 1017.16 1017.10 1017.05 1017.08 1017.22 1017.47 1017.80 1018.16 1018.50 1018.76 1018.93 1018.98 1018.93 1018.84 1018.72 1018.63 1018.60 1018.63 1018.72 1018.84 1018.98 1019.09 1019.17 1019.20 1019.21 1019.19 1019.16 1019.14
1014.46 1015.25 1016.09 1016.89 1017.53 1017.91 1017.98 1017.74 1017.26 1016.63 1016.00 1015.49 1015.18 1015.12 1015.30 1015.67 1016.13 1016.58 1016.94 1017.17 1017.26 1017.25 1017.19 1017.17 1017.23 1017.41 1017.71 1018.10 1018.51 1018.90 1019.19 1019.36 1019.39 1019.32 1019.19 1019.04 1018.92 1018.86 1018.88 1018.98 1019.11 1019.25 1019.38 1019.46 1019.50 1019.50 1019.48 1019.45 1019.44
1014.49 1015.41 1016.37 1017.26 1017.95 1018.34 1018.37 1018.06 1017.49 1016.75 1016.02 1015.41 1015.04 1014.94 1015.10 1015.47 1015.94 1016.41 1016.80 1017.06 1017.18 1017.20 1017.18 1017.19 1017.30 1017.53 1017.88 1018.31 1018.77 1019.19 1019.50 1019.67 1019.70 1019.62 1019.46 1019.29 1019.15 1019.08 1019.09 1019.18 1019.32 1019.47 1019.60 1019.69 1019.73 1019.73 1019.72 1019.70 1019.70
1014.51 1015.56 1016.63 1017.60 1018.32 1018.69 1018.68 1018.29 1017.60 1016.76 1015.92 1015.22 1014.76 1014.61 1014.74 1015.08 1015.56 1016.05 1016.47 1016.77 1016.94 1017.02 1017.05 1017.12 1017.28 1017.56 1017.96 1018.43 1018.91 1019.34 1019.67 1019.85 1019.88 1019.79 1019.63 1019.46 1019.32 1019.25 1019.26 1019.35 1019.49 1019.63 1019.76 1019.85 1019.90 1019.90 1019.90 1019.89 1019.91
1014.54 1015.70 1016.85 1017.87 1018.60 1018.94 1018.86 1018.39 1017.60 1016.66 1015.71 1014.92 1014.39 1014.17 1014.25 1014.58 1015.05 1015.56 1016.02 1016.37 1016.61 1016.75 1016.86 1016.99 1017.21 1017.53 1017.96 1018.44 1018.93 1019.37 1019.70 1019.88 1019.92 1019.85 1019.71 1019.55 1019.43 1019.38 1019.40 1019.49 1019.62 1019.77 1019.89 1019.97 1020.01 1020.01 1020.01 1020.01 1020.04
1014.58 1015.80 1017.00 1018.02 1018.72 1019.02 1018.87 1018.31 1017.45 1016.42 1015.40 1014.54 1013.94 1013.67 1013.72 1014.02 1014.49 1015.02 1015.52 1015.93 1016.24 1016.46 1016.64 1016.85 1017.11 1017.47 1017.91 1018.39 1018.88 1019.30 1019.62 1019.81 1019.87 1019.82 1019.72 1019.60 1019.51 1019.48 1019.52 1019.62 1019.75 1019.88 1019.98 1020.05 1020.07 1020.06 1020.05 1020.05 1020.08
1014.59 1015.82 1017.01 1017.99 1018.63 1018.86 1018.64 1018.02 1017.10 1016.03 1014.97 1014.08 1013.46 1013.16 1013.19 1013.48 1013.95 1014.50 1015.04 1015.51 1015.89 1016.19 1016.46 1016.72 1017.04 1017.42 1017.86 1018.33 1018.79 1019.19 1019.49 1019.68 1019.75 1019.74 1019.67 1019.60 1019.56 1019.57 1019.63 1019.74 1019.86 1019.97 1020.05 1020.09 1020.09 1020.06 1020.02 1020.01 1020.03
1014.52 1015.70 1016.81 1017.70 1018.26 1018.40 1018.12 1017.46 1016.53 1015.46 1014.43 1013.56 1012.96 1012.67 1012.71 1013.00 1013.48 1014.06 1014.63 1015.16 1015.61 1015.99 1016.32 1016.65 1017.01 1017.40 1017.83 1018.28 1018.70 1019.06 1019.34 1019.52 1019.61 1019.63 1019.61 1019.59 1019.59 1019.64 1019.73 1019.84 1019.96 1020.04 1020.09 1020.10 1020.06 1019.99 1019.93 1019.90 1019.90
1014.32 1015.40 1016.37 1017.13 1017.56 1017.61 1017.28 1016.61 1015.71 1014.71 1013.75 1012.96 1012.43 1012.21 1012.28 1012.60 1013.10 1013.69 1014.31 1014.88 1015.39 1015.84 1016.24 1016.62 1017.01 1017.42 1017.84 1018.25 1018.64 1018.96 1019.21 1019.37 1019.47 1019.51 1019.53 1019.55 1019.60 1019.68 1019.79 1019.90 1020.00 1020.06 1020.08 1020.04 1019.97 1019.88 1019.79 1019.72 1019.70
1014.01 1014.92 1015.71 1016.29 1016.58 1016.54 1016.16 1015.51 1014.68 1013.79 1012.96 1012.30 1011.89 1011.75 1011.89 1012.25 1012.78 1013.39 1014.03 1014.64 1015.20 1015.70 1016.16 1016.60 1017.02 1017.44 1017.85 1018.24 1018.58 1018.87 1019.08 1019.23 1019.32 1019.38 1019.43 1019.48 1019.56 1019.67 1019.78 1019.89 1019.98 1020.01 1020.00 1019.93 1019.82 1019.70 1019.58 1019.50 1019.45
Thickness
5815 5813 5810 5799 5780 5763 5760 5771 5780 5782 5786 5792 5794 5790 5783 5776 5770 5770 5792 5802 5801 5796 5791 5786 5783 5780 5777 5774 5772 5770 5768 5766 5765 5764 5762 5761 5760 5759 5758 5757 5756 5755 5754 5753 5753 5752 5751 5750 5750
5814 5810 5801 5787 5767 5750 5758 5775 5777 5783 5793 5798 5796 5793 5785 5781 5784 5785 5791 5797 5797 5793 5789 5785 5781 5778 5776 5772 5770 5767 5766 5764 5763 5761 5760 5758 5757 5756 5755 5754 5753 5752 5751 5751 5750 5749 5748 5748 5747
5812 5807 5788 5774 5761 5753 5763 5779 5784 5792 5799 5797 5791 5791 5785 5780 5786 5788 5792 5794 5793 5790 5786 5783 5780 5777 5773 5770 5768 5765 5764 5762 5760 5759 5757 5756 5754 5753 5752 5751 5750 5749 5748 5748 5747 5747 5746 5745 5744
5805 5792 5781 5764 5759 5768 5776 5785 5791 5790 5794 5796 5791 5782 5784 5790 5792 5793 5794 5792 5788 5785 5782 5780 5777 5774 5771 5768 5766 5763 5761 5759 5758 5756 5755 5753 5752 5750 5749 5748 5747 5746 5745 5745 5744 5744 5743 5742 5741
5797 5778 5762 5751 5757 5772 5784 5791 5793 5787 5787 5790 5789 5778 5776 5788 5795 5794 5792 5789 5785 5782 5779 5776 5774 5771 5769 5766 5763 5761 5759 5757 5755 5754 5752 5750 5749 5748 5746 5745 5744 5743 5742 5741 5741 5741 5740 5739 5738
5778 5766 5747 5742 5755 5773 5783 5791 5790 5786 5786 5787 5785 5775 5773 5786 5789 5788 5788 5785 5783 5779 5776 5773 5771 5768 5766 5763 5760 5758 5756 5754 5753 5751 5750 5748 5746 5744 5743 5742 5741 5740 5739 5738 5738 5737 5736 5736 5735
5768 5755 5747 5749 5753 5763 5779 5788 5784 5782 5781 5783 5786 5772 5770 5777 5783 5784 5782 5780 5777 5775 5772 5769 5766 5765 5763 5760 5758 5755 5754 5752 5750 5748 5747 5745 5742 5741 5740 5738 5737 5736 5735 5735 5734 5733 5733 5733 5732
5775 5754 5747 5745 5750 5759 5778 5783 5784 5781 5780 5789 5787 5771 5766 5775 5781 5779 5776 5773 5771 5769 5767 5765 5762 5761 5759 5757 5756 5753 5751 5749 5747 5746 5744 5741 5739 5738 5736 5735 5734 5733 5732 5731 5730 5729 5729 5729 5729
5775 5744 5734 5745 5751 5761 5775 5774 5778 5785 5781 5781 5782 5779 5780 5780 5777 5771 5767 5764 5763 5763 5762 5760 5758 5756 5755 5753 5752 5750 5748 5746 5744 5743 5741 5738 5736 5735 5733 5732 5730 5729 5728 5727 5727 5725 5725 5725 5725
5761 5736 5744 5759 5765 5766 5770 5770 5771 5772 5768 5768 5770 5774 5777 5773 5770 5765 5761 5758 5756 5756 5756 5755 5754 5752 5751 5749 5748 5747 5745 5743 5741 5739 5737 5735 5733 5732 5730 5729 5728 5727 5725 5725 5724 5722 5722 5722 5722
5759 5749 5759 5767 5771 5770 5766 5766 5769 5763 5757 5763 5763 5765 5766 5764 5761 5759 5757 5755 5753 5754 5753 5751 5751 5748 5747 5745 5744 5743 5741 5739 5738 5736 5734 5732 5730 5728 5727 5726 5725 5723 5723 5722 5721 5720 5719 5719 5719
5759 5762 5767 5769 5772 5768 5764 5763 5760 5758 5759 5767 5767 5766 5762 5757 5755 5753 5750 5749 5748 5748 5749 5749 5747 5744 5742 5741 5740 5739 5737 5736 5734 5732 5731 5729 5726 5725 5723 5722 5721 5720 5719 5718 5717 5717 5716 5716 5716
5760 5763 5769 5769 5767 5764 5761 5756 5753 5751 5758 5763 5761 5758 5752 5750 5749 5749 5748 5746 5745 5743 5745 5745 5743 5742 5739 5737 5737 5736 5734 5732 5731 5729 5727 5725 5723 5721 5720 5718 5718 5717 5716 5715 5714 5714 5714 5713 5713
5766 5765 5764 5764 5763 5762 5753 5748 5746 5744 5750 5750 5749 5746 5745 5744 5743 5743 5743 5742 5741 5740 5740 5741 5741 5740 5737 5735 5733 5732 5731 5730 5728 5726 5724 5722 5720 5718 5717 5715 5714 5713 5713 5713 5712 5711 5711 5710 5710
5769 5757 5755 5756 5756 5754 5749 5736 5736 5741 5742 5738 5738 5738 5738 5738 5738 5737 5737 5738 5738 5738 5737 5737 5736 5735 5733 5731 5729 5728 5727 5726 5724 5722 5721 5719 5716 5715 5713 5712 5711 5710 5709 5709 5709 5708 5707 5707 5706
5760 5746 5737 5747 5749 5749 5738 5721 5732 5737 5734 5729 5731 5731 5731 5731 5732 5733 5734 5735 5735 5734 5733 5735 5735 5732 5729 5727 5726 5725 5724 5723 5721 5719 5717 5715 5713 5712 5709 5708 5707 5706 5706 5705 5704 5704 5703 5702 5702
5739 5731 5732 5739 5745 5742 5732 5720 5728 5731 5729 5724 5725 5726 5725 5724 5725 5728 5730 5731 5731 5730 5730 5729 5730 5728 5726 5724 5723 5722 5721 5719 5717 5715 5714 5712 5710 5708 5706 5704 5703 5702 5702 5701 5700 5699 5698 5698 5697
5732 5731 5731 5730 5738 5735 5724 5719 5724 5726 5726 5722 5720 5721 5721 5721 5722 5726 5727 5728 5727 5727 5726 5726 5726 5725 5723 5721 5719 5717 5716 5715 5713 5712 5711 5708 5706 5704 5702 5700 5699 5698 5697 5695 5695 5693 5693 5693 5693
5746 5736 5729 5732 5738 5729 5720 5717 5720 5723 5721 5718 5717 5718 5719 5719 5722 5724 5724 5724 5723 5723 5723 5723 5723 5722 5720 5717 5714 5712 5710 5710 5709 5708 5706 5705 5702 5700 5698 5696 5694 5693 5691 5690 5690 5689 5687 5687 5687
5744 5733 5728 5731 5736 5728 5717 5715 5719 5720 5719 5719 5718 5717 5719 5718 5719 5721 5722 5722 5721 5720 5720 5720 5721 5721 5719 5716 5713 5711 5709 5707 5706 5704 5703 5702 5699 5697 5695 5693 5690 5688 5687 5686 5685 5684 5682 5681 5680
5742 5734 5731 5726 5727 5723 5716 5709 5713 5718 5720 5720 5720 5719 5721 5721 5720 5720 5720 5719 5718 5718 5718 5720 5719 5719 5717 5714 5711 5709 5706 5704 5702 5700 5699 5698 5696 5694 5692 5690 5687 5685 5683 5681 5680 5678 5676 5674 5674
5738 5748 5741 5729 5714 5703 5708 5692 5707 5711 5713 5716 5717 5718 5720 5722 5722 5721 5719 5717 5717 5717 5718 5718 5717 5716 5714 5712 5711 5708 5703 5700 5698 5696 5695 5694 5693 5691 5689 5687 5684 5682 5679 5677 5675 5674 5672 5670 5667
5744 5746 5737 5725 5711 5701 5701 5691 5698 5708 5707 5714 5717 5719 5721 5722 5723 5722 5721 5720 5718 5717 5716 5716 5715 5713 5712 5711 5709 5706 5702 5699 5696 5695 5692 5690 5688 5687 5686 5683 5680 5678 5675 5673 5671 5669 5666 5664 5662
5748 5737 5724 5710 5701 5691 5698 5691 5694 5703 5712 5718 5720 5721 5723 5724 5724 5723 5722 5721 5718 5717 5715 5714 5712 5711 5710 5708 5707 5704 5701 5697 5694 5692 5689 5686 5684 5683 5681 5679 5677 5674 5671 5669 5666 5664 5661 5658 5656
5742 5719 5698 5695 5683 5686 5698 5693 5699 5720 5727 5728 5727 5726 5726 5726 5725 5723 5721 5720 5718 5716 5715 5713 5711 5709 5708 5706 5704 5702 5700 5697 5693 5690 5687 5684 5681 5679 5677 5675 5673 5670 5667 5664 5661 5658 5655 5653 5651
5733 5724 5700 5690 5684 5687 5696 5693 5714 5734 5737 5737 5734 5732 5730 5727 5727 5726 5724 5722 5721 5718 5716 5713 5710 5707 5706 5704 5702 5700 5698 5695 5691 5688 5685 5682 5679 5677 5675 5672 5669 5666 5663 5660 5657 5653 5650 5648 5645
5730 5721 5721 5698 5691 5687 5693 5705 5723 5737 5736 5735 5734 5732 5731 5730 5729 5727 5726 5724 5722 5719 5716 5713 5710 5707 5705 5703 5701 5698 5696 5693 5689 5686 5683 5680 5677 5675 5672 5669 5665 5662 5659 5656 5652 5648 5645 5642 5639
5742 5725 5706 5696 5686 5685 5697 5703 5711 5729 5732 5733 5733 5733 5733 5733 5731 5729 5727 5726 5724 5721 5718 5715 5712 5709 5706 5703 5700 5697 5694 5691 5688 5685 5681 5678 5675 5672 5668 5665 5661 5658 5654 5651 5647 5643 5640 5637 5634
5729 5721 5708 5695 5695 5686 5686 5704 5738 5740 5741 5739 5739 5739 5738 5736 5735 5732 5730 5728 5725 5721 5718 5715 5711 5708 5704 5701 5699 5696 5693 5690 5686 5683 5680 5676 5672 5668 5665 5661 5657 5654 5650 5647 5643 5639 5635 5632 5629
5740 5727 5712 5704 5697 5690 5688 5707 5754 5750 5749 5747 5744 5743 5742 5740 5738 5735 5732 5728 5724 5721 5718 5715 5711 5708 5705 5701 5697 5694 5691 5688 5684 5681 5677 5674 5669 5666 5662 5658 5654 5650 5647 5643 5638 5635 5631 5627 5624